{"data":{"norad_id":45447,"intl_designator":"2020-020Z","name":"ONEWEB-0046","alt_names":[],"object_type":"PAYLOAD","status":"ACTIVE","operator":null,"country":"UK","launch_date":"2020-03-21","launch_site_code":"TYMSC","launch_vehicle":null,"mission":null,"orbit_class":"UNKNOWN","rcs_meters":null,"size_class":null,"mass_kg":null,"dimensions":null,"purposes":["comms"],"wikipedia_slug":null,"has_3d_model":false,"image_url":null,"decayed_at":null,"tle_current":{"epoch":"2026-09-19T14:24:35.353152Z","epoch_age_seconds":92057,"freshness":"FRESH","line1":"1 45447U 20020Z   26262.60040918 -.00000154  00000+0 -46958-3 0  9990","line2":"2 45447  87.8967   2.3000 0002018 106.4013 253.7337 13.11414576314980","mean_motion":13.11414576,"eccentricity":0.0002018,"inclination_deg":87.8967,"raan_deg":2.3,"arg_perigee_deg":106.4013,"mean_anomaly_deg":253.7337,"bstar":-0.00046958,"rev_number":31498,"period_min":109.8050933971,"perigee_km":1216.1590077367,"apogee_km":1219.224684259,"semimajor_km":7595.8288459979,"source":"CELESTRAK","updated_at":"2026-09-20T09:00:44.557134Z"}}}